Location: Beaurains
(49.6113°N, 2.9711°E)
Time: 10:46:49
(UTC+00:00)

Daily predictions for brighter satellites

Satellite Brightness Start Highest point End
(mag) Time Altitude Azimuth Time Altitude Azimuth Time Altitude Azimuth
COSMOS 2406 4.1 19:53:14 10° SSE 19:58:04 29° ESE 20:02:57 10° NE
Cosmos 1980 Rocket 2.7 19:52:51 10° NW 19:58:28 60° WSW 20:04:02 10° S
Cosmos 1782 2.7 19:56:21 10° S 19:59:46 51° E 20:03:12 10° NNE
Okean-O 3.2 19:56:03 10° SE 20:00:09 41° ENE 20:04:16 10° N
CZ-4 R/B 1.9 19:56:56 10° S 20:00:27 52° W 20:04:02 10° NNW
MetOp-B 4.2 19:55:24 10° SSE 20:00:45 84° ENE 20:06:09 10° NNW
Cosmos 724 4.4 19:54:57 10° SW 20:00:59 85° SE 20:06:56 10° NE
Ariane Rocket 4.4 19:59:05 10° ESE 20:03:01 23° ENE 20:06:59 10° N
Cosmos 1758 Rocket 4.5 20:02:15 10° N 20:06:16 33° ENE 20:10:15 10° SE
ASTEX 1 4.4 20:01:52 10° SSW 20:06:40 51° W 20:11:31 10° NNW
Spot 2 Rocket 3.7 20:03:12 10° SSE 20:08:06 57° ENE 20:13:03 10° N
Cosmos 1725 Rocket 4.0 20:03:31 10° S 20:09:46 82° E 20:16:02 10° N
Cosmos 2333 Rocket 2.9 20:05:09 10° NNW 20:10:36 43° NE 20:16:02 10° ESE
ATLAS 3B R/B 4.3 20:04:22 10° NW 20:11:09 35° WSW 20:17:33 10° S
ERS-1 Rocket 3.4 20:09:11 10° S 20:14:09 66° WSW 20:19:10 10° NNW
Tsikada Rocket 4.0 20:11:59 10° N 20:18:11 76° E 20:24:19 10° SSE
Cosmos 2016 Rocket 4.1 20:18:07 10° S 20:24:22 87° W 20:30:36 10° N
Cosmos 2360 Rocket 3.2 20:19:14 10° NNW 20:24:25 35° NE 20:29:34 10° ESE
Cosmos 1461 3.4 20:22:32 10° S 20:25:47 29° ESE 20:29:01 10° ENE
CZ-4B R/B 3.7 20:21:38 10° S 20:27:15 65° WSW 20:32:51 10° NNW
CZ-4C R/B 3.1 20:25:09 10° WSW 20:29:25 46° NW 20:34:56 10° NE
CZ-4B R/B 4.2 20:25:37 11° SE 20:29:46 37° ENE 20:34:13 10° N
Cosmos 1602 Rocket 4.5 20:26:34 10° N 20:30:28 33° ENE 20:33:50 13° SE
Cosmos 1992 Rocket 4.0 20:25:27 10° S 20:30:35 64° ESE 20:35:44 10° NNE
YAOGAN 11 4.2 20:29:50 10° NNE 20:34:13 58° ESE 20:38:37 10° S
ISS -3.3 20:32:57 10° W 20:36:16 64° N 20:39:36 10° ENE
Cosmos 2219 Rocket 3.5 20:32:48 10° NNW 20:37:45 30° NE 20:42:40 10° ESE
Cosmos 1437 Rocket 3.1 20:36:40 12° SSE 20:39:39 37° E 20:42:59 10° NNE
USA 290 4.4 20:39:46 11° E 20:39:46 11° E 20:40:33 10° E
SL-08 R/B 3.5 20:39:42 10° NNE 20:44:33 79° WNW 20:49:16 10° SSW
DEBRIS 3.3 20:43:09 10° WSW 20:46:07 82° SSE 20:54:57 10° E
Cosmos 1626 Rocket 3.5 20:42:34 10° N 20:46:58 86° E 20:51:00 12° S
Cosmos 2098 Rocket 4.1 20:44:22 15° SE 20:47:35 30° E 20:51:16 10° NNE
NOSS 3-3 (A) 3.8 20:43:36 10° SW 20:48:49 88° NW 20:55:10 10° NE
Terra 3.3 20:47:39 10° SSW 20:51:53 33° W 20:56:08 10° NNW
Cosmos 2151 2.8 20:50:50 10° N 20:54:58 77° E 20:58:09 16° SSE
Cosmos 2322 Rocket 2.5 20:50:51 10° NNW 20:56:27 57° NE 21:00:46 17° SE
Cosmos 1486 Rocket 4.3 20:51:29 10° NNW 20:56:42 58° ENE 21:00:35 18° SE
IRS-1C Rocket 4.3 20:53:40 16° SSE 20:57:51 62° ENE 21:03:04 10° N
Cosmos 1464 Rocket 4.5 20:53:50 15° SSE 20:58:32 41° E 21:04:17 10° NNE
Cosmos 909 Rocket 4.1 20:52:55 10° SW 20:59:14 85° NW 21:05:50 10° NE
Cosmos 2061 Rocket 4.2 20:53:15 10° SSW 20:59:28 76° W 21:05:49 10° N
Cosmos 2082 Rocket 3.0 20:55:17 10° SW 21:00:54 56° NW 21:06:32 10° NNE
USA 306 3.5 21:00:01 10° W 21:02:39 29° NNW 21:04:27 10° NE
Cosmos 1606 Rocket 4.4 21:03:16 20° SE 21:05:32 33° E 21:09:24 10° NNE
CZ-4B R/B 2.4 21:09:42 22° S 21:11:48 80° WSW 21:15:17 10° NNW
USA 186 3.2 21:11:04 12° SSW 21:13:11 26° W 21:15:35 10° NW
Cosmos 1726 Rocket 4.5 21:12:35 22° SE 21:14:02 28° E 21:17:31 10° NNE
Cosmos 540 Rocket 4.5 21:13:16 21° SE 21:15:24 28° E 21:19:44 10° NE
Okean O Rocket 2.8 21:11:33 10° SSW 21:15:31 36° W 21:19:31 10° NNW
NOSS 3-3 (C) 4.1 21:15:29 10° SW 21:20:48 70° NW 21:27:15 10° NE
Cosmos 1805 2.7 21:17:42 10° N 21:20:58 76° E 21:22:21 32° SSE
Cosmos 2278 3.8 21:16:48 10° NNW 21:22:31 74° WSW 21:26:23 21° SSE
Meteor 1-5 Rocket 4.3 21:19:36 10° N 21:25:23 79° ENE 21:29:21 22° SSE
COSMOS 2428 4.3 21:20:46 10° NNW 21:25:29 26° NE 21:30:09 10° E
SL-16 R/B 2.7 21:21:26 10° NW 21:26:59 55° WSW 21:30:55 19° S
Cosmos 1544 Rocket 4.2 21:23:03 10° SSW 21:27:18 54° WNW 21:31:33 10° N
CZ-2C R/B 1.8 21:27:14 43° SSE 21:28:01 88° ENE 21:30:48 10° NNW
Okean 1-7 Rocket 3.6 21:23:37 10° N 21:28:06 75° ENE 21:30:35 26° SSE
NOSS 3 (A) 4.3 21:29:04 10° NW 21:31:23 58° SW 21:31:48 48° S
NOSS 3-4 (A) 3.9 21:26:41 10° NW 21:33:22 79° SW 21:38:38 23° SSE
NOSS 3-4 (C) 3.9 21:27:18 10° NW 21:34:01 80° SW 21:39:18 23° SSE
Cosmos-2242 4.1 21:34:03 24° ESE 21:35:02 27° E 21:38:31 10° NNE
Okean-O 4.5 21:33:00 10° SSW 21:36:34 24° W 21:40:10 10° NW
Cosmos 2034 Rocket 4.3 21:32:54 22° SSE 21:36:53 54° E 21:43:01 10° NNE
Cosmos 1933 4.1 21:37:02 11° SSW 21:40:30 45° WNW 21:44:12 10° N
Ariane Rocket 3.3 21:38:06 20° S 21:41:31 60° WSW 21:46:32 10° NNW
COSMOS 2406 3.9 21:36:24 10° SW 21:42:03 56° NW 21:47:43 10° NNE
SPOT 3 Rocket 4.4 21:41:43 16° SSW 21:45:33 44° W 21:50:28 10° NNW
Nadezhda 4 Rocket 4.0 21:46:08 10° NNW 21:52:17 78° W 21:56:13 24° S
Cosmos 2333 Rocket 3.2 21:49:36 10° NW 21:54:51 39° WSW 21:58:17 20° SSW
Helios 1B rocket 3.1 21:55:11 28° E 21:56:01 32° ENE 21:59:10 10° N
Cosmos 1763 Rocket 3.5 21:53:12 25° S 21:56:19 66° ESE 22:01:34 10° NNE
Cosmos 1825 Rocket 3.7 21:52:57 10° NNW 21:57:17 68° W 21:59:17 31° S
Okean 1 2.9 21:56:18 39° SSW 21:57:32 85° W 22:01:09 10° N
Cosmos 1470 4.3 21:55:23 10° NNE 21:57:45 18° ENE 21:58:12 18° E
Cosmos 1536 3.4 21:54:56 10° N 21:58:25 38° ENE 21:59:12 34° ESE
Cosmos 1707 2.9 21:59:51 34° ENE 21:59:51 34° ENE 22:02:04 10° NNE
Cosmos 2221 4.3 21:59:07 16° E 21:59:34 16° E 22:02:09 10° NE
Cosmos 1634 Rocket 4.4 21:57:45 28° SE 22:00:35 46° E 22:06:28 10° NNE
Cosmos 1833 4.1 21:57:58 21° SSW 22:01:45 68° ESE 22:07:21 10° NNE
Cosmos 1461 4.2 21:58:33 10° WSW 22:01:59 35° NW 22:05:24 10° NNE
Cosmos 2297 Rocket 4.2 22:01:44 11° E 22:02:09 11° E 22:03:45 10° ENE
Cosmos 1953 Rocket 3.4 21:59:01 10° N 22:03:23 83° ENE 22:04:56 40° SSE
Cosmos 44 3.6 21:58:49 10° NW 22:04:14 71° NE 22:06:56 29° SE
Cosmos 990 Rocket 3.9 21:59:24 10° NNW 22:04:35 84° WSW 22:06:54 34° SSE
Cosmos 2360 Rocket 2.7 22:03:09 10° NW 22:08:37 51° WSW 22:11:23 27° S
Cosmos 2195 Rocket 4.5 22:04:16 10° N 22:10:32 82° W 22:13:54 29° S
Cosmos 2322 4.3 22:05:05 10° NNW 22:10:37 49° NE 22:13:47 24° ESE
ISS -3.6 22:09:55 10° WNW 22:13:16 70° NNE 22:14:19 40° E
USA 290 2.9 22:12:10 30° WSW 22:13:21 50° WNW 22:16:26 10° NNE
BREEZE-M DEB (TANK) 3.0 22:12:10 10° W 22:13:11 22° W 22:13:11 22° W
Cosmos 2026 Rocket 4.0 22:08:30 10° N 22:14:55 89° W 22:18:17 30° S
Cosmos 2058 Rocket 3.1 22:14:25 43° SSE 22:15:34 60° E 22:19:51 10° NNE
Helios 1A 2.7 22:17:42 10° NNE 22:21:38 76° ESE 22:22:30 52° S
Cosmos 2219 Rocket 2.4 22:16:29 10° NW 22:22:05 62° WSW 22:24:29 34° S
Cosmos 1975 3.8 22:21:37 10° N 22:24:54 30° ENE 22:25:24 29° E
KORONAS-FOTON 3.6 22:25:06 55° E 22:25:06 55° E 22:28:24 10° NNE
Cosmos 1076 Rocket 4.2 22:22:29 10° NNW 22:26:33 45° W 22:28:03 31° SW
Cosmos 841 Rocket 4.3 22:28:15 31° ESE 22:29:08 33° ESE 22:33:48 10° NE
RESURS DK-1 2.8 22:27:38 10° NNW 22:31:32 50° NE 22:32:35 38° ESE
ARIANE 5 R/B 3.1 22:32:16 37° ESE 22:33:36 49° ENE 22:37:55 10° N
ALOS 2 3.4 22:33:58 33° ESE 22:35:17 42° ENE 22:39:26 10° N
Cosmos 2322 Rocket 3.6 22:35:25 10° NW 22:40:09 28° WSW 22:42:34 21° SW
Cosmos 1766 3.6 22:42:41 10° NNW 22:45:44 39° W 22:45:46 39° W
Cosmos 1271 Rocket 2.6 22:46:13 58° ENE 22:46:13 58° ENE 22:49:20 10° NNE
Cosmos 372 Rocket 3.8 22:41:11 10° NNW 22:46:19 82° WSW 22:47:53 45° SSE
Cosmos 1842 2.9 22:47:39 65° NE 22:47:39 65° NE 22:50:27 10° NNE
Lacrosse 4 Rocket 3.8 22:51:57 10° E 22:51:57 10° E 22:52:09 10° E
Spot 4 3.8 22:51:57 46° SSE 22:53:19 76° ENE 22:58:08 10° NNW
Meteor 2-9 Rocket 4.1 22:48:37 10° N 22:54:01 77° ENE 22:55:56 42° SSE
PSLV R/B 4.1 22:51:30 10° NNE 22:55:34 41° E 22:55:59 39° ESE
Cosmos 540 Rocket 4.3 22:52:54 17° SW 22:56:38 48° WNW 23:01:38 10° NNE
Cosmos 2237 Rocket 3.0 22:53:36 10° NNW 22:59:04 45° NE 23:02:17 23° ESE
Aureole 1 Rocket 4.3 22:54:27 10° NNW 23:00:07 55° WSW 23:02:46 34° SSW
BREEZE-M DEB (TANK) 4.3 22:43:09 10° WSW 23:00:47 77° SSE 23:04:53 10° ENE
CZ-2C R/B 3.8 22:58:58 22° ESE 23:01:28 34° ENE 23:06:07 10° N
Cosmos 1980 4.3 22:57:44 10° NNW 23:03:17 51° NE 23:06:13 26° ESE
ARGOS Delta rocket 4.1 22:59:53 10° NNE 23:05:01 65° E 23:06:31 45° SSE
Cosmos 2142 Rocket 4.5 23:05:17 39° S 23:07:43 73° E 23:13:55 10° NNE
Cosmos 1937 Rocket 3.4 23:02:45 10° NNW 23:07:56 84° ENE 23:09:26 47° SSE
COSMOS 2428 2.7 23:04:37 10° NNW 23:10:20 76° WSW 23:12:10 44° S
Cosmos 2227 Rocket 3.9 23:11:04 17° ESE 23:11:55 17° E 23:15:31 10° ENE
Cosmos-2242 4.4 23:10:18 23° WSW 23:11:56 31° WNW 23:15:38 10° N
NOSS 0 Rocket 3.8 23:06:43 10° NNW 23:12:56 90° ENE 23:15:26 39° SSE
Cosmos 468 Rocket 4.4 23:10:30 28° SW 23:13:14 60° WNW 23:18:28 10° NNE
Meteor 1-11 Rocket 3.7 23:08:09 10° N 23:13:50 74° ENE 23:15:45 42° SSE
Meteor 1-10 Rocket 4.4 23:17:23 42° SSE 23:19:22 69° E 23:25:17 10° NNE
MetOp-A 4.1 23:18:10 41° SE 23:19:38 60° ENE 23:24:15 10° N
Cosmos 2263 Rocket 4.2 23:20:54 12° ESE 23:21:56 13° E 23:24:19 10° ENE
Cosmos 1812 Rocket 3.4 23:25:18 63° S 23:26:00 87° E 23:30:27 10° N
Cosmos 1238 Rocket 3.8 23:25:54 34° E 23:26:12 35° E 23:30:07 10° NNE
Helios 1B rocket 3.9 23:29:08 20° W 23:29:08 20° W 23:31:45 10° NW
Cosmos 1470 3.8 23:28:48 10° NNW 23:31:24 29° W 23:31:24 29° W
USA 234 3.3 23:25:28 10° ENE 23:31:54 57° SE 23:34:29 36° SSW
SeaSat 1 3.7 23:28:37 17° ESE 23:31:54 37° NE 23:36:24 10° NNW
CZ-2C R/B 3.5 23:28:17 10° NNE 23:33:59 60° E 23:35:48 42° SSE
Meteor 1-27 Rocket 4.0 23:32:34 41° SSE 23:34:24 60° E 23:40:03 10° NNE
ACS3 Solar Sail 3.2 23:30:10 10° NE 23:34:59 25° E 23:37:20 20° ESE
Helios 1B 4.4 23:30:50 10° NNE 23:35:07 85° WNW 23:35:46 63° SSW
Cosmos 2221 2.8 23:35:23 47° WSW 23:36:08 55° WNW 23:40:15 10° N
ATLAS 2AS CENTAUR R/B 4.5 23:30:55 10° NW 23:36:50 30° NNE 23:42:45 10° E
BlueWalker 3 4.2 23:41:17 13° E 23:41:17 13° E 23:41:50 10° E
CZ-2C R/B 4.5 23:36:29 10° N 23:40:43 44° WNW 23:42:14 32° WSW
Cosmos 1898 Rocket 4.1 23:36:25 10° NW 23:41:15 40° WSW 23:42:14 36° SW
Cosmos 2297 Rocket 2.2 23:43:29 46° S 23:45:04 68° ESE 23:50:41 10° NNE
Meteor 2-20 4.4 23:46:32 42° S 23:48:47 90° W 23:54:55 10° N
ISS -1.2 23:46:49 10° W 23:47:15 13° W 23:47:15 13° W
Landsat 5 4.1 23:47:37 10° NNE 23:51:27 38° E 23:51:40 38° ESE
Cosmos 1842 Rocket 4.3 23:53:33 37° ESE 23:54:15 40° E 23:58:23 10° NNE
GP-B 3.2 23:50:58 10° N 23:55:19 63° W 23:56:01 54° SW
